Regional Weather Roundup
Issued by NWS

Home | Current Version | Previous Version | Graphics & Text | Print | Product List | Glossary On
Versions: 1 2 3 4 5 6 7 8 9 10 11 12 13 14 15 16 17 18 19 20 21 22 23 24 25 26 27 28 29 30 31 32 33 34 35 36 37 38 39 40 41 42 43 44 45 46 47 48 49 50
000
ASUS43 KBIS 201920
RWRND

NORTH DAKOTA REGIONAL WEATHER ROUNDUP
NATIONAL WEATHER SERVICE BISMARCK ND
100 PM CST THU NOV 20 2014

NOTE: "FAIR" INDICATES FEW OR NO CLOUDS BELOW 12,000 FEET WITH NO
SIGNIFICANT WEATHER AND/OR OBSTRUCTIONS TO VISIBILITY.


NDZ001>003-009>011-017-202000-
NORTHWEST NORTH DAKOTA

CITY           SKY/WX    TMP DP  RH WIND       PRES   REMARKS
WILLISTON      PTSUNNY   19  10  68 S12       29.97F WCI   7
MINOT          MOSUNNY   19   8  62 S12G17    30.02F WCI   7
MINOT AFB      SUNNY     20   9  62 S9        30.02F WCI   9
$$

NDZ018>021-031>035-040>046-202000-
SOUTHWEST NORTH DAKOTA

CITY           SKY/WX    TMP DP  RH WIND       PRES   REMARKS
BISMARCK       SUNNY     20   9  62 SW8       30.08F WCI  10
DICKINSON      CLOUDY    19  15  84 S15       29.93F FOG     WCI   5
GARRISON         N/A     18  11  74 SW12      30.03F WCI   5
HETTINGER ARPT CLOUDY    20  17  88 S8        29.97F WCI  10
$$

NDZ004>008-012>016-024-026-027-054-202000-
NORTHEAST NORTH DAKOTA

CITY           SKY/WX    TMP DP  RH WIND       PRES   REMARKS
GRAND FORKS    MOSUNNY   18   2  49 W6        30.14F WCI  10
GRND FRKS AFB  SUNNY     19   1  46 VRB3      30.13F
DEVILS LAKE    SUNNY     18   1  49 SW8       30.06F WCI   7
$$

NDZ022-023-025-028>030-036>039-047>053-202000-
SOUTHEAST NORTH DAKOTA

CITY           SKY/WX    TMP DP  RH WIND       PRES   REMARKS
FARGO          SUNNY     20   3  48 NW6       30.16S WCI  12
JAMESTOWN      SUNNY     20   6  55 VRB5      30.10F WCI  13
$$




USA.gov is the U.S. government's official web portal to all federal, state and local government web resources and services.